N3EYQ Weather Reports


Display with metric or nautical units.
time (UTC)temp
F
wind
direction
speed
MPH
gust
MPH
rain 1hr
in
rain 24hr
in
rain mn
in
humidity
%
barometer
mb
20260509205220 55 0 0.0 0.0 0.00 0.00 0.00 87 1010.0
20260509204219 54 0 0.0 0.0 0.00 0.00 0.00 87 1010.0
20260509203218 54 0 0.0 0.0 0.00 0.00 0.00 87 1010.3
20260509202218 54 0 0.0 0.0 0.00 0.00 0.00 87 1010.3
20260509201218 54 0 0.0 0.0 0.00 0.00 0.00 87 1010.6
20260509200218 54 0 0.0 0.0 0.00 0.00 0.00 88 1010.6
20260509195219 54 0 0.0 0.0 0.00 0.00 0.00 87 1011.0
20260509194238 54 0 0.0 0.0 0.00 0.00 0.00 88 1011.0
20260509193218 54 0 0.0 0.0 0.00 0.00 0.00 87 1011.0
20260509192237 54 0 0.0 0.0 0.00 0.00 0.00 87 1011.3
20260509191218 54 0 0.0 0.0 0.00 0.00 0.00 87 1011.3
20260509190218 53 0 0.0 0.0 0.00 0.00 0.00 87 1011.6
20260509185217 53 0 0.0 0.0 0.00 0.00 0.00 88 1011.6
20260509184217 53 0 0.0 0.0 0.00 0.00 0.00 88 1011.6
20260509183237 52 0 0.0 0.0 0.00 0.00 0.00 86 1011.6
20260509182217 52 0 0.0 0.0 0.00 0.00 0.00 86 1011.6
20260509181217 52 0 0.0 0.0 0.00 0.00 0.00 86 1011.6
20260509180216 52 0 0.0 0.0 0.00 0.00 0.00 86 1011.6
20260509175217 52 0 0.0 0.0 0.00 0.00 0.00 86 1011.6
20260509174216 52 0 0.0 0.0 0.00 0.00 0.00 86 1011.6
20260509173217 52 0 0.0 0.0 0.00 0.00 0.00 86 1011.6
20260509172217 51 0 0.0 0.0 0.00 0.00 0.00 87 1011.3
20260509171216 52 0 0.0 0.0 0.00 0.00 0.00 87 1011.6
20260509170217 51 0 0.0 0.0 0.00 0.00 0.00 86 1011.6
20260509165215 51 0 0.0 0.0 0.00 0.00 0.00 86 1011.6
20260509164215 51 0 0.0 0.0 0.00 0.00 0.00 86 1012.0
20260509163215 51 0 0.0 0.0 0.00 0.00 0.00 86 1012.3
20260509162216 51 0 0.0 0.0 0.00 0.00 0.00 86 1012.3
20260509161215 51 0 0.0 0.0 0.00 0.00 0.00 86 1012.7
20260509160215 51 0 0.0 0.0 0.00 0.00 0.00 86 1012.7
20260509155215 50 0 0.0 0.0 0.00 0.00 0.00 86 1012.7
20260509154214 51 0 0.0 0.0 0.00 0.00 0.00 85 1012.7
20260509153214 51 0 0.0 0.0 0.00 0.00 0.00 85 1012.7
20260509152214 50 0 0.0 0.0 0.00 0.00 0.00 86 1012.7
20260509151214 50 0 0.0 0.0 0.00 0.00 0.00 86 1012.7
20260509150214 50 0 0.0 0.0 0.00 0.00 0.00 86 1013.0
20260509145214 50 0 0.0 0.0 0.00 0.00 0.00 85 1013.0
20260509144215 49 0 0.0 0.0 0.00 0.00 0.00 86 1013.0
20260509143234 49 0 0.0 0.0 0.00 0.00 0.00 86 1013.0
20260509142214 48 0 0.0 0.0 0.00 0.00 0.00 86 1013.0
20260509141213 48 0 0.0 0.0 0.00 0.00 0.00 87 1013.0
20260509140213 48 0 0.0 0.0 0.00 0.00 0.00 87 1013.0
20260509135233 48 0 0.0 0.0 0.00 0.00 0.00 85 1013.3
20260509134214 48 0 0.0 0.0 0.00 0.00 0.00 85 1013.3
20260509133214 47 0 0.0 0.0 0.00 0.00 0.00 85 1013.3
20260509132212 47 0 0.0 0.0 0.00 0.00 0.00 85 1013.3
20260509131212 47 0 0.0 0.0 0.00 0.00 0.00 85 1013.0
20260509130212 47 0 0.0 0.0 0.00 0.00 0.00 86 1012.7
20260509125213 47 0 0.0 0.0 0.00 0.00 0.00 86 1013.0
20260509124233 46 0 0.0 0.0 0.00 0.00 0.00 86 1013.0
20260509123213 46 0 0.0 0.0 0.00 0.00 0.00 86 1013.0
20260509122212 46 0 0.0 0.0 0.00 0.00 0.00 87 1013.0
20260509121212 46 0 0.0 0.0 0.00 0.00 0.00 88 1013.3
20260509120211 46 0 0.0 0.0 0.00 0.00 0.00 85 1013.7
20260509115211 45 0 0.0 0.0 0.00 0.00 0.00 85 1013.7
20260509114211 45 0 0.0 0.0 0.00 0.00 0.00 85 1013.7
20260509113211 45 0 0.0 0.0 0.00 0.00 0.00 85 1013.3
20260509112211 45 0 0.0 0.0 0.00 0.00 0.00 85 1013.3
20260509111301 45 0 0.0 0.0 0.00 0.00 0.00 85 1013.7
20260509110211 45 0 0.0 0.0 0.00 0.00 0.00 85 1013.7
20260509105210 45 0 0.0 0.0 0.00 0.00 0.00 86 1013.3
20260509104211 44 0 0.0 0.0 0.00 0.00 0.00 86 1013.3
20260509103211 44 0 0.0 0.0 0.00 0.00 0.00 85 1013.3
20260509102210 44 0 0.0 0.0 0.00 0.00 0.00 86 1013.3
20260509101211 44 0 0.0 0.0 0.00 0.00 0.00 85 1013.7
20260509100211 44 0 0.0 0.0 0.00 0.00 0.00 85 1013.7
20260509095210 44 0 0.0 0.0 0.00 0.00 0.00 85 1013.7
20260509094210 44 0 0.0 0.0 0.00 0.00 0.00 84 1013.7
20260509093230 44 0 0.0 0.0 0.00 0.00 0.00 83 1013.7
20260509092229 44 0 0.0 0.0 0.00 0.00 0.00 85 1013.3
20260509091229 44 0 0.0 0.0 0.00 0.00 0.00 83 1013.3
20260509090209 44 0 0.0 0.0 0.00 0.00 0.00 83 1013.7
20260509085229 44 0 0.0 0.0 0.00 0.00 0.00 82 1013.7
20260509084209 44 0 0.0 0.0 0.00 0.00 0.00 82 1013.7
20260509083209 44 0 0.0 0.0 0.00 0.00 0.00 82 1013.7
20260509082208 44 0 0.0 0.0 0.00 0.00 0.00 82 1013.7
20260509081208 44 0 0.0 0.0 0.00 0.00 0.00 82 1013.3
20260509080209 44 0 0.0 0.0 0.00 0.00 0.00 83 1013.3
20260509075208 44 0 0.0 0.0 0.00 0.00 0.00 83 1013.7
20260509074208 44 0 0.0 0.0 0.00 0.00 0.00 84 1013.7
20260509073228 44 0 0.0 0.0 0.00 0.00 0.00 81 1013.7
20260509072208 44 0 0.0 0.0 0.00 0.00 0.00 79 1013.7
20260509071207 44 0 0.0 0.0 0.00 0.00 0.00 78 1013.3
20260509070207 43 0 0.0 0.0 0.00 0.00 0.00 78 1013.0
20260509065207 43 0 0.0 0.0 0.00 0.00 0.00 77 1013.0
20260509064227 43 0 0.0 0.0 0.00 0.00 0.00 77 1013.0
20260509063207 43 0 0.0 0.0 0.00 0.00 0.00 77 1013.0
20260509062207 42 0 0.0 0.0 0.00 0.00 0.00 77 1013.3
20260509061207 42 0 0.0 0.0 0.00 0.00 0.00 77 1013.3
20260509060207 42 0 0.0 0.0 0.00 0.00 0.00 78 1013.3
20260509055206 42 0 0.0 0.0 0.00 0.00 0.00 77 1013.7
20260509054206 42 0 0.0 0.0 0.00 0.00 0.00 77 1013.7
20260509053206 41 0 0.0 0.0 0.00 0.00 0.00 77 1013.7
20260509052206 41 0 0.0 0.0 0.00 0.00 0.00 77 1013.7
20260509051206 41 0 0.0 0.0 0.00 0.00 0.00 77 1013.7
20260509050206 41 0 0.0 0.0 0.00 0.00 0.00 76 1013.7
20260509045206 41 0 0.0 0.0 0.00 0.00 0.00 75 1013.7
20260509044206 41 0 0.0 0.0 0.00 0.00 0.00 75 1013.7
20260509043206 41 0 0.0 0.0 0.00 0.00 0.00 74 1014.0
20260509042205 41 0 0.0 0.0 0.00 0.00 0.00 74 1013.7
20260509041226 41 0 0.0 0.0 0.00 0.00 0.00 73 1013.7
20260509040205 41 0 0.0 0.0 0.00 0.00 0.00 73 1013.7
20260509035205 41 0 0.0 0.0 0.00 0.00 0.00 72 1013.7
20260509034225 41 0 0.0 0.0 0.00 0.00 0.00 71 1013.7
20260509033205 41 0 0.0 0.0 0.00 0.00 0.00 70 1013.7
20260509032205 42 0 0.0 0.0 0.00 0.00 0.00 70 1013.3
20260509031204 42 0 0.0 0.0 0.00 0.00 0.00 70 1013.7
20260509030204 42 0 0.0 0.0 0.00 0.00 0.00 68 1013.3
20260509025204 42 0 0.0 0.0 0.00 0.00 0.00 68 1013.3
20260509024204 42 0 0.0 0.0 0.00 0.00 0.00 67 1013.7
20260509023224 43 0 0.0 0.0 0.00 0.00 0.00 66 1013.7
20260509022204 43 0 0.0 0.0 0.00 0.00 0.00 65 1013.7
20260509021203 44 0 0.0 0.0 0.00 0.00 0.00 65 1013.3
20260509020203 44 0 0.0 0.0 0.00 0.00 0.00 63 1013.3
20260509015204 44 0 0.0 0.0 0.00 0.00 0.00 63 1013.0
20260509014203 45 0 0.0 0.0 0.00 0.00 0.00 62 1013.0
20260509013203 45 0 0.0 0.0 0.00 0.00 0.00 62 1012.7
20260509012203 46 0 0.0 0.0 0.00 0.00 0.00 58 1012.7
20260509011223 47 0 0.0 0.0 0.00 0.00 0.00 57 1012.7
20260509010203 47 0 0.0 0.0 0.00 0.00 0.00 56 1012.3
20260509005202 48 0 0.0 0.0 0.00 0.00 0.00 55 1012.0
20260509004202 49 0 0.0 0.0 0.00 0.00 0.00 53 1011.6
20260509003202 51 0 0.0 0.0 0.00 0.00 0.00 51 1011.6
20260509002202 52 0 0.0 0.0 0.00 0.00 0.00 49 1011.6
20260509001223 53 0 0.0 0.0 0.00 0.00 0.00 48 1011.6
20260509000204 53 0 0.0 0.0 0.00 0.00 0.00 47 1011.6
20260508235222 54 0 0.0 0.0 0.00 0.00 0.00 46 1011.6
20260508234201 55 0 0.0 0.0 0.00 0.00 0.00 45 1011.3
20260508233201 56 0 0.0 0.0 0.00 0.00 0.00 43 1011.3
20260508232201 57 0 0.0 0.0 0.00 0.00 0.00 40 1011.0
20260508231221 57 0 0.0 0.0 0.00 0.00 0.00 39 1011.3
20260508230201 58 0 0.0 0.0 0.00 0.00 0.00 37 1011.3
20260508225201 58 0 0.0 0.0 0.00 0.00 0.00 37 1011.0
20260508224201 59 0 0.0 0.0 0.00 0.00 0.00 36 1011.0
20260508223200 59 0 0.0 0.0 0.00 0.00 0.00 37 1011.0
20260508222201 59 0 0.0 0.0 0.00 0.00 0.00 36 1011.0
20260508221220 59 0 0.0 0.0 0.00 0.00 0.00 37 1011.0
20260508220200 60 0 0.0 0.0 0.00 0.00 0.00 33 1011.0
20260508215221 61 0 0.0 0.0 0.00 0.00 0.00 34 1011.0
20260508214220 61 0 0.0 0.0 0.00 0.00 0.00 38 1011.0
20260508213200 60 0 0.0 0.0 0.00 0.00 0.00 38 1011.0
20260508212200 61 0 0.0 0.0 0.00 0.00 0.00 38 1011.0
20260508211159 61 0 0.0 0.0 0.00 0.00 0.00 38 1011.0
20260508210219 61 0 0.0 0.0 0.00 0.00 0.00 38 1011.3